Laramie, WY

7:56 PM MST on November 20, 2017 (GMT -0700)
Laramie Regional

Weather History for KLAR - November, 2013

Change the Weather History Date:

Saturday, November 2, 2013

  Actual Average Record
Temperature  
Mean Temperature 45 °F 36 °F  
Max Temperature 59 °F 48 °F 66 °F (2005)
Min Temperature 31 °F 23 °F -17 °F (1991)
Degree Days  
Heating Degree Days 20 29  
Month to date heating degree days 51 58  
Since 1 July heating degree days 1192 1301  
Cooling Degree Days 0 0  
Month to date cooling degree days 0 0  
Year to date cooling degree days 162 67  
Moisture  
Dew Point 15 °F    
Average Humidity 38    
Maximum Humidity 63    
Minimum Humidity 13    
Precipitation  
Precipitation 0.00 in 0.02 in 0.60 in (1987)
Month to date precipitation 0.01 0.04  
Year to date precipitation 10.69 10.10  
Sea Level Pressure  
Sea Level Pressure 29.94 in    
Wind  
Wind Speed 19 mph (SW)    
Max Wind Speed 32 mph    
Max Gust Speed 39 mph    
Visibility 10 miles    
Events      
T = Trace of Precipitation, MM = Missing Value Source: NWS Daily Summary

Daily Weather History Graph

Daily Weather History Graph

Search for Another Location

Airport or City:

Trip Planner

Search our weather history database for the weather conditions in past years. The results will help you decide how hot, cold, wet, or windy it might be!

Date:

Astronomy

Nov. 02, 2013 Rise Set
Actual Time 7:35 AM MDT 5:56 PM MDT
Civil Twilight 7:06 AM MDT 6:25 PM MDT
Nautical Twilight 6:34 AM MDT 6:57 PM MDT
Astronomical Twilight 6:01 AM MDT 7:29 PM MDT
Moon 6:35 AM MDT (11/2) 5:29 PM MDT (11/2)
Length of Visible Light 11h 18m
Length of Day
10h 20m
Waning Crescent, 1% of the Moon is Illuminated
Nov 2
Waning Crescent
Nov 3
New
Nov 9
First Quarter
Nov 17
Full
Nov 25
Last Quarter

Hourly Weather History & Observations

Time (MDT) Temp. Windchill Dew Point Humidity Pressure Visibility Wind Dir Wind Speed Gust Speed Precip Events Conditions
12:53 AM 32.0 °F 21.2 °F 21.0 °F 64% 30.17 in 10.0 mi SSW 16.1 mph 24.2 mph N/A   Clear
1:53 AM 32.0 °F 19.5 °F 21.0 °F 64% 30.15 in 10.0 mi SSW 21.9 mph - N/A   Clear
2:53 AM 34.0 °F 21.8 °F 21.0 °F 59% 30.12 in 10.0 mi SW 23.0 mph - N/A   Clear
3:53 AM 34.0 °F 21.5 °F 19.9 °F 56% 30.10 in 10.0 mi SW 24.2 mph 28.8 mph N/A   Clear
4:53 AM 33.1 °F 21.9 °F 19.9 °F 59% 30.11 in 10.0 mi SW 18.4 mph - N/A   Clear
5:53 AM 35.1 °F 23.8 °F 19.0 °F 52% 30.12 in 10.0 mi SW 20.7 mph - N/A   Clear
6:53 AM 34.0 °F 22.4 °F 19.9 °F 56% 30.15 in 10.0 mi WSW 20.7 mph - N/A   Clear
7:53 AM 34.0 °F 23.0 °F 19.0 °F 54% 30.15 in 10.0 mi SW 18.4 mph - N/A   Clear
8:53 AM 39.0 °F 29.0 °F 19.9 °F 46% 30.10 in 10.0 mi SW 20.7 mph 28.8 mph N/A   Clear
9:53 AM 44.1 °F 35.0 °F 19.0 °F 37% 30.06 in 10.0 mi SW 24.2 mph - N/A   Clear
10:53 AM 48.9 °F - 18.0 °F 29% 30.01 in 10.0 mi SW 19.6 mph - N/A   Clear
11:53 AM 52.0 °F - 14.0 °F 22% 29.97 in 10.0 mi SW 21.9 mph 32.2 mph N/A   Clear
12:53 PM 55.0 °F - 10.9 °F 17% 29.90 in 10.0 mi SW 24.2 mph - N/A   Clear
1:53 PM 55.9 °F - 10.0 °F 16% 29.87 in 10.0 mi SW 26.5 mph 38.0 mph N/A   Clear
2:53 PM 55.9 °F - 10.0 °F 16% 29.81 in 10.0 mi SW 26.5 mph 39.1 mph N/A   Clear
3:53 PM 57.0 °F - 6.1 °F 13% 29.78 in 10.0 mi SW 26.5 mph 32.2 mph N/A   Clear
4:53 PM 52.0 °F - 14.0 °F 22% 29.79 in 10.0 mi SSW 20.7 mph 27.6 mph N/A   Clear
5:53 PM 46.0 °F 38.3 °F 15.1 °F 29% 29.79 in 10.0 mi SW 20.7 mph - N/A   Clear
6:53 PM 44.1 °F 35.9 °F 14.0 °F 30% 29.81 in 10.0 mi SW 19.6 mph - N/A   Clear
7:53 PM 42.1 °F 36.1 °F 12.0 °F 29% 29.82 in 10.0 mi WSW 10.4 mph - N/A   Clear
8:53 PM 43.0 °F 36.4 °F 12.0 °F 28% 29.76 in 10.0 mi SSW 12.7 mph - N/A   Clear
9:53 PM 45.0 °F 38.2 °F 10.0 °F 24% 29.71 in 10.0 mi SW 15.0 mph - N/A   Clear
10:53 PM 44.1 °F 40.1 °F 9.0 °F 24% 29.66 in 10.0 mi Variable 6.9 mph - N/A   Clear
11:53 PM 39.9 °F 32.5 °F 10.0 °F 29% 29.65 in 10.0 mi SW 12.7 mph - N/A   Clear